Location: Natural Bridges National Monument
(37.6093°N, 109.9767°W)
Time: 23:09:47
(UTC-06:00)

Daily predictions for brighter satellites

Satellite Brightness Start Highest point End
(mag) Time Altitude Azimuth Time Altitude Azimuth Time Altitude Azimuth
Milstar 3 4.5 19:15:06 10° WSW 19:23:49 54° S 19:40:20 10° E
Cosmos 2333 Rocket 3.6 19:22:34 10° SW 19:28:03 45° WNW 19:33:35 10° N
Aureole 2 Rocket 3.0 19:28:02 10° S 19:32:24 70° ESE 19:36:42 10° NNE
OAO 3 Rocket 3.4 19:30:58 10° WSW 19:35:38 60° S 19:40:23 10° E
SAR-Lupe-1 4.4 19:32:18 10° SE 19:35:41 42° ENE 19:39:05 10° N
Cosmos 1484 Rocket 2.7 19:32:03 10° SSE 19:35:51 86° ENE 19:39:46 10° N
Cosmos 1624 Rocket 4.0 19:33:01 10° NNW 19:38:15 78° ENE 19:43:26 10° SSE
ASTRO E2 3.8 19:35:31 10° WSW 19:39:11 33° S 19:42:51 10° ESE
Cosmos 1766 Rocket 4.4 19:38:18 10° NNE 19:42:09 29° ENE 19:45:57 10° SE
USA 215 3.4 19:38:49 10° NE 19:45:15 59° SE 19:51:40 10° SSW
ALOS 3.6 19:43:33 10° ESE 19:46:50 19° ENE 19:50:08 10° NNE
Meteor 1-29 4.1 19:44:45 10° NE 19:47:36 23° E 19:50:27 10° SSE
SL-19 R/B 4.3 19:42:13 10° SSE 19:47:49 85° ENE 19:53:43 10° NNW
Helios 1B rocket 3.0 19:45:53 10° NNE 19:49:39 34° E 19:53:24 10° SSE
Cosmos 2237 Rocket 4.0 19:46:06 10° SW 19:51:13 34° WNW 19:56:23 10° N
CZ-4C R/B 4.0 19:47:25 10° WSW 19:52:09 31° NW 19:57:25 10° NNE
Cosmos 1076 Rocket 3.7 19:48:56 10° N 19:53:09 48° E 19:57:20 10° SSE
Cosmos 2034 Rocket 4.2 19:48:31 10° SSE 19:54:29 49° E 20:00:32 10° NNE
ATLAS 5 CENTAUR R/B 1.7 19:49:56 10° SSW 19:54:36 70° ESE 19:59:40 10° NE
Cosmos 1766 3.3 19:51:59 10° S 19:55:55 85° W 19:59:55 10° N
Cosmos 1464 Rocket 4.0 19:50:02 10° S 19:56:15 70° E 20:02:25 10° NNE
Cosmos-2242 3.5 19:53:26 10° SSE 19:57:26 37° E 20:01:28 10° NNE
Atlas Centaur 2 4.0 19:50:30 10° W 19:58:20 41° SSW 20:05:45 10° SE
SeaSat 1 3.9 19:55:20 10° ENE 19:58:21 16° ESE 20:01:22 10° SE
FREGAT/IRIS 2.5 19:59:51 10° SSE 20:02:55 75° E 20:06:01 10° N
Cosmos 1452 Rocket 3.6 20:02:32 10° N 20:07:42 54° ENE 20:12:49 10° SSE
SEDSat Delta rocket 4.5 20:02:54 10° WSW 20:09:18 51° S 20:14:09 18° ESE
ATLAS CENTAUR R/B 3.1 20:06:36 10° NW 20:10:17 32° WSW 20:13:42 10° S
SL-16 R/B 3.0 20:05:43 10° SW 20:11:15 54° WNW 20:16:51 10° NNE
Cosmos 1842 Rocket 4.5 20:09:26 10° SE 20:12:59 25° E 20:16:34 10° NNE
Cosmos 1544 3.4 20:11:56 10° SSE 20:15:28 42° E 20:19:02 10° NNE
Cosmos 1408 Rocket 3.4 20:11:35 10° N 20:15:57 79° E 20:20:15 10° S
SL-8 R/B 3.8 20:12:16 10° SW 20:16:56 57° SE 20:20:05 20° ENE
NOSS 3-2 (A) 4.2 20:11:25 10° SW 20:17:21 56° NW 20:23:49 10° NNE
Cosmos 1378 4.3 20:17:25 10° NNW 20:21:00 45° W 20:24:34 10° SSW
Cosmos 1953 2.2 20:17:48 10° S 20:21:48 86° E 20:25:47 10° N
METEOR-M 4.1 20:17:11 10° SSE 20:22:33 88° WSW 20:27:56 10° NNW
Cosmos 468 4.4 20:17:25 10° S 20:22:38 70° ESE 20:27:50 10° NNE
H-2A R/B 3.5 20:25:26 32° E 20:25:59 33° ENE 20:29:30 10° N
Cosmos 1805 3.2 20:22:14 10° S 20:26:09 85° W 20:30:06 10° N
Gbstr 26 Del rocket 3.8 20:23:21 10° SSW 20:27:18 34° SE 20:28:30 30° E
Cosmos 1420 Rocket 4.3 20:24:36 10° N 20:29:44 47° ENE 20:32:19 27° SE
Abrixas 2.3 20:28:34 10° SW 20:31:34 77° SE 20:31:53 65° E
Resurs 1-3 3.5 20:27:13 10° SSE 20:31:35 81° ENE 20:36:00 10° N
Resurs 01 Rocket 1.8 20:28:12 10° S 20:32:38 76° WSW 20:37:06 10° NNW
ATLAS CENTAUR R/B 4.1 20:28:27 10° WSW 20:33:29 63° NW 20:49:43 10° NE
Cosmos 1346 3.3 20:30:57 10° N 20:33:27 49° NE 20:33:27 49° NE
FENGYUN 3A 3.7 20:29:17 13° SSE 20:34:00 59° ENE 20:39:17 10° N
ASTEX 1 3.3 20:33:58 10° NNE 20:38:49 59° E 20:43:37 10° S
Helios 1A 3.4 20:38:26 10° S 20:42:36 63° W 20:46:47 10° NNW
Spot 2 Rocket 4.0 20:38:56 10° S 20:43:54 60° WSW 20:48:53 10° NNW
Cosmos 1743 Rocket 3.4 20:39:58 10° N 20:44:25 76° E 20:46:46 27° SSE
Cosmos 1269 Rocket 3.9 20:39:52 10° SSW 20:45:08 86° ESE 20:50:27 10° NNE
Cosmos 1048 Rocket 3.9 20:41:33 10° S 20:46:51 76° ESE 20:52:07 10° NNE
Cosmos 1470 2.7 20:49:05 61° ENE 20:49:05 61° ENE 20:52:33 10° NNE
CENTAUR R/B 2.4 20:45:32 10° SSW 20:51:18 56° ESE 20:57:44 10° NE
Cosmos 1943 3.2 20:48:55 10° S 20:54:23 54° ESE 20:59:51 10° NNE
Envisat 4.5 20:56:32 21° NE 20:56:32 21° NE 20:59:00 10° NNE
GPS 2-04 Rocket1 3.5 20:51:43 10° WSW 20:54:14 35° SSW 20:54:14 35° SSW
Cosmos 2369 Rocket 2.7 20:50:40 10° N 20:55:57 39° ENE 20:56:06 39° ENE
Cosmos 1603 4.3 20:52:57 10° SW 20:58:36 59° WNW 21:04:18 10° NNE
Cosmos 1943 Rocket 3.8 20:55:21 10° N 20:58:11 18° NE 20:58:11 18° NE
GP-B 3.8 20:57:59 10° N 21:01:03 40° NNE 21:01:03 40° NNE
BREEZE-M DEB (TANK) 4.1 20:54:48 10° WNW 21:06:02 42° N 21:07:42 32° NE
Nadezhda 4 Rocket 4.2 21:00:22 10° NNW 21:06:37 70° W 21:12:46 10° S
ISS -1.5 21:04:18 10° SW 21:06:00 28° WSW 21:06:00 28° WSW
Cosmos 1674 3.2 21:08:17 10° NNW 21:11:36 57° NW 21:11:36 57° NW
Cosmos 1655 Rocket 4.4 21:06:15 10° N 21:11:27 44° ENE 21:11:27 44° ENE
Cosmos 1092 Rocket 3.9 21:07:30 10° N 21:13:44 85° W 21:17:09 28° S
Cosmos 2142 Rocket 4.4 21:10:34 10° S 21:16:54 81° E 21:23:19 10° N
OAO 3 Rocket 3.6 21:14:18 10° W 21:18:26 54° SW 21:18:26 54° SW
ALOS 3.5 21:21:06 19° SSW 21:23:58 39° W 21:28:21 10° NNW
Cosmos 1634 Rocket 4.0 21:20:12 10° S 21:26:27 80° W 21:32:42 10° N
USA 215 4.3 21:22:02 10° NNE 21:28:03 41° NNW 21:34:04 10° W
Cosmos 2026 Rocket 3.9 21:22:02 10° N 21:27:32 65° NE 21:27:32 65° NE
ERS-1 Rocket 4.1 21:35:09 35° N 21:35:09 35° N 21:38:05 10° N
SeaSat 1 2.9 21:31:18 10° NNE 21:36:10 58° WNW 21:40:59 10° SW
ATLAS 5 CENTAUR R/B 4.5 21:36:39 10° W 21:39:53 17° NW 21:43:18 10° N
Cosmos 2369 Rocket 4.3 22:35:06 10° NW 22:37:55 22° WNW 22:37:55 22° WNW
CENTAUR R/B 4.2 22:37:06 10° W 22:42:21 28° NW 22:48:10 10° NNE
Cosmos 1943 Rocket 4.3 22:37:55 10° NNW 22:39:43 21° NW 22:39:43 21° NW
CZ-3A R/B 4.4 22:20:08 10° SW 22:53:14 80° W 22:53:14 80° W
